Tracking 18840 objects as of 18-November-2017
HD Live streaming from Space Station
objects crossing your sky now

FLOCK 3P 54

Track FLOCK 3P 54 now!
10-day predictions
FLOCK 3P 54 is classified as:


NORAD ID: 42014
Int'l Code: 2017-008BU
Perigee: 496.6 km
Apogee: 508.5 km
Inclination: 97.5 °
Period: 94.5 minutes
Semi major axis: 6873 km
RCS: Unknown
Launch date: February 15, 2017
Source: United States (US)
Launch site: SRIHARIKOTA (SRI)
aabbcc
Your satellite tracking list
Your tracking list is empty




NASA's NSSDC Master Catalog

Two Line Element Set (TLE):
1 42014U 17008BU  17321.73801560 +.00002121 +00000-0 +91931-4 0  9994
2 42014 097.4786 022.7017 0008632 048.8507 311.3473 15.23469375041916
Source of the keplerian elements: AFSPC